Погода Минеральные Воды

Погода Минеральные Воды : погода сейчас, прогноз погоды и архив. Всё, что Вы хотите узнать о погоде Минеральные Воды!

Поиск расширенной информации на нашем сайте:

Другие новости

Новости СМИ2

Главная страница сайта

Новости сайта

02.10.2013

Напоминаем, что на нашем новом сайте вы можете получить высокодетализированные прогнозы погоды по пунктам России, СНГ и мира (включающие важные для авиации метеовеличины, такие как направление и скорость ветра, видимость, явления погоды, количество и форма облачности, нижняя и верхняя граница облачности), а также ознакомиться с разнообразными материалами по авиационной метеорологии и подборкой полезных ссылок на эту тему.

Сайт Метеоцентр.Азия посвящён разработке технологий оптимизации авиаметеорологического обслуживания, включая проектирование и перспективное создание нескольких автоматизированных авиаметеорологических систем:
- система выпуска высокодетальных прогностических карт явлений погоды для нижнего воздушного пространства по России и ближнему зарубежью;
- система верификации прогнозов TAF (выпускаемых синоптиками официальных АМСГ РФ и ближнего зарубежья) и AUTOTAF (выпускаемых сайтом Метеоцентр.Азия) - выявление ошибок, онлайн-сопоставление с фактической погодой METAR, автоматическое внесение коррективов в прогнозы при резком отклонении фактической погоды от прогноза, подсчёт оправдываемости прогнозов по элементам и в целом;
- система обработки, анализа и отображения авиаметеорологической информации для применения провайдерами метеорологической информации.

Рекомендуем: звонки на мобильный через скайп

Погода Минеральные Воды - сегодня

Время (UTC), дата Ветер
(°,м/с) 
Видим.   Явления Облачность Т
(°С)
Тd
(°С)
f(%) Тe
(°С)
Pmin
(гПа)
dP
(гПа)
Po
(мм)
O2
(г/м3)
Тmin Tmax R s Состояние
почвы
21 22.03.17 230 (ЮЗ) 6{14}  10 км  {дождь}  10/10 600 м 
[Sc]
+4.6 +1.9 83 +2  1019.6  -0.2  736  291           
00 23.03.17 250 (З) 4{10}  4000 м  дымка  10/10 600 м 
[Sc]
+4.6 +2.7 87 +3  1020  0.4  736  291           
03 23.03.17 270 (З) 3{11}  10 км  в посл. час дождь  10/10 600 м 
[Ns]
+5 +2.6 84 +4  1020.8  0.9  737  291  +3.7       
06 23.03.17 290 (З) 4000 м  дымка{дождь}  10/10 300 м 
[Sc]
+5.1 +3 86 +5  1022.5  1.6  738  291           
09 23.03.17 330 (СЗ) 10 км    10/10 600 м 
[Sc]
+4.8 +2.3 84 +4  1023.3  0.7  738  292           
12 23.03.17 050 (СВ) 10 км    10/10 600 м 
[Sc]
+4.9 +2.4 84 +5  1024.2  0.8  739  292           
15 23.03.17 050 (СВ) 10 км    10/10 600 м 
[Sc]
+4.4 +1.7 83 +5  1025.4  1.1  740  293    +5.6       
18 23.03.17 090 (В) 10 км    10/10 600 м 
[Sc]
+3.8 +2.1 89 +3  1026.7  1.1  741  294           
21 23.03.17 040 (СВ) 10 км    10/10 600 м 
[Sc]
+3.6 +2.3 91 +4  1026.7  741  294           
00 24.03.17 тихо ()   10 км    10/10 600 м 
[Sc]
+3.6 +2.3 91 +4  1026.8  0.1  741  294           
03 24.03.17 030 (СВ) 10 км    10/10 300 м 
[Sc]
+3.3 +2.4 94 +4  1027.4  0.5  741  295  +3.3         
06 24.03.17 060 (СВ) 10 км    10/10 600 м 
[Sc]
+5.2 +3.2 87 +5  1027.5  0.4  742  293  +3.3         
09 24.03.17 040 (СВ) 10 км    10/10 300 м 
[Sc]
+8.2 +3.4 72 +8  1026.2  -0.9  741  289           
12 24.03.17 040 (СВ) 20000 м    8/8 600 м 
[Sc]
+9.7 +3.6 66 +9  1025  -1  740  287           
15 24.03.17 050 (СВ) 20000 м    6/6 600 м 
[Sc]
+8 +3.1 71 +7  1024.5  -0.6  740  289    +9.8       
18 24.03.17 080 (В) 10 км    ясно 
+4.2 +2 86 +3  1025  -0.1  740  293           
21 24.03.17 070 (В) 10 км    ясно 
+2.6 +0.6 87 +2  1023.1  -2  738  294           
00 25.03.17 260 (З) 4000 м  дымка  10/10 300 м 
[Sc]
-0.2 -0.8 96 1022.5  -1  737  297           
03 25.03.17 260 (З) 0500 м  туман  ?/?  
-0 -0.4 97 -1  1021.7  -0.8  737  297  -0.9         
06 25.03.17 270 (З) 20000 м  {туман}  6/0 средняя, верхняя 
[Ac trans|Ci fib]
+6.1 +5.3 95 +6  1018.9  -1.7  735  289           
09 25.03.17 270 (З) 20000 м  {туман}  10/5 600 м верхняя 
[Cu hum|Ci]
+14.7 +5.4 54 +15  1016.4  -1.4  734  280           
12 25.03.17 260 (З) 20000 м    10/5 1000 м средняя, верхняя 
[Sc|Ac lent|Ci]
+15.9 -0.4 33 +16  1014.4  -1.8  733  279           
15 25.03.17 270 (З) 20000 м    10/10 1000 м 
[Sc]
+12.7 +1.8 47 +13  1014.9  0.1  733  282    +16.2       
18 25.03.17 280 (З) 10 км    10/10 1000 м 
[Sc]
+8.9 +3.8 70 +10  1016.7  1.2  734  286           
21 25.03.17 210 (ЮЗ) 4000 м  слаб. дождь  10/10 300 м 
[Frnb|Ns]
+5.7 +4.3 91 +5  1017.2  734  289           
Время (UTC), дата Ветер
(°,м/с) 
Видим.   Явления Облачность Т
(°С)
Тd
(°С)
f(%) Тe
(°С)
Pmin
(гПа)
dP
(гПа)
Po
(мм)
O2
(г/м3)
Тmin Tmax R s Состояние
почвы

Для получения пояснительной информации подведите курсор к названию столбца.

ПОГОДА Минеральные Воды - архив

Всё, что Вы хотите узнать о погоде Минеральные Воды - удобно и подробно!

Выберите нужную дату (начиная с 1 января 2015* года) и нажмите кнопку "Найти".
Будут отображены архивные сводки погоды по пункту Минеральные Воды, начиная с указанной даты.


Отображать данные в формате CSV (для использования в таблицах Excel)


Внимание! Наш архив погоды предназначен исключительно для личного некоммерческого использования в познавательных целях. Если Вам необходимы официальные справки о состоянии погоды (для производственных, юридических, коммерческих и т.п. целей), обращайтесь в органы Росгидромета.

*Примечание: данная дата относится к архиву по метеостанциям СССР (Россия, СНГ, Балтия).
Архив по метеостанциям Зарубежной Европы и Азии (кроме Китая) хранится 10 дней, по другим регионам земного шара (Китай, Африка, Америка, Австралия, Океания) - 1 день.

Минеральные Воды - район местоположения метеостанции


Название, широта, долгота, высота метеостанции:
Минеральные Воды 44.2°ш. 43.1°д. 316 м над ур. моря [Российская Федерация]

Дополнительная информация

В oтличие oт бoльшинства пoгoдных сайтoв мы публикуем пoдрoбную метеoинфoрмацию в детальнoм прoфессиoнальнoм фoрмате.

Характеристики температуры и влажнoсти вoздуха измеряются на высoте 2 м в тени вдали oт зданий и деревьев.
Скoрoсть ветра измеряется на высoте 10 м (на урoвне рoста челoвека скoрoсть ветра ниже в 1.5-2 раза). Если метеoстанция нахoдится в гoрoде или в лесу, тo скoрoсть ветра занижена на 2-4 м/с пo сравнению с oткрытым местoм. Скoрoсть ветра над акватoриями крупных рек и oзёр, а также на вершинах хoлмoв на 2-5 м/с выше, чем в oбычных услoвиях.
Атмoсфернoе давление в разных тoчках местнoсти мoжет значительнo oтличаться oт давления на метеoстанции, в зависимoсти oт услoвий рельефа (при пoдъёме на 10 м давление пoнижается примернo на 1 мм рт.ст.).